This demonstration page uses our WeatherBlox Daily Observations layout. Learn more.

36.17497, -115.13722

Hourly Observations for March 11, 2018

Temp ( °F °C ) Dew Point ( °F °C ) Humidity (%) Winds ( mph kmh ) Pressure ( in mb ) Visibility ( mi km ) Precip ( " mm )
12:53 am 00:53 Cloudy with Light Rain 54 12.2 54 12.2 100 100 ESE 5 7 30.01 1016 10 16.0934 0.04 1.016
1:53 am 01:53 Cloudy with Light Rain 54 12.2 53 11.7 97 97 Calm 30.01 1016 10 16.0934 0.05 1.27
3:24 am 03:24 Cloudy 54 12.2 53 11.7 97 97 SE 3 6 29.97 1015 10 16.0934 0.01 0.254
3:53 am 03:53 Cloudy 53 11.7 53 11.7 100 100 SSE 5 7 30.01 1016 10 16.0934 0.01 0.254
4:53 am 04:53 Cloudy with Light Rain 54 12.2 53 11.7 97 97 Calm 30.03 1017 3 4.82802 0.01 0.254
5:03 am 05:03 Cloudy with Rain 53 11.7 53 11.7 100 100 Calm 30 1016 2 3.21868 0.04 1.016
5:15 am 05:15 Cloudy with Light Rain 53 11.7 53 11.7 100 100 Calm 30 1016 3 4.82802 0.06 1.524
5:23 am 05:23 Cloudy with Light Rain 53 11.7 53 11.7 100 100 Calm 30 1016 5 8.0467 0.06 1.524
5:53 am 05:53 Cloudy with Light Rain 53 11.7 53 11.7 100 100 ENE 5 7 30.05 1018 6 9.65604 0.08 2.032
6:10 am 06:10 Cloudy 53 11.7 53 11.7 100 100 ESE 6 9 30 1016 10 16.0934 0 0.0254
6:27 am 06:27 Cloudy 53 11.7 53 11.7 100 100 ESE 5 7 30.03 1017 10 16.0934 0 0.0254
6:53 am 06:53 Cloudy 53 11.7 53 11.7 100 100 Calm 30.06 1018 10 16.0934 0 0.0254
7:37 am 07:37 Cloudy 54 12.2 53 11.7 97 97 SW 3 6 30.03 1017 10 16.0934 0 0
7:53 am 07:53 Cloudy 54 12.2 53 11.7 97 97 Calm 30.09 1019 10 16.0934 0 0
8:08 am 08:08 Cloudy 54 12.2 53 11.7 97 97 Calm 30.06 1018 10 16.0934 0 0
8:53 am 08:53 Cloudy 56 13.3 52 11.1 87 87 VRB 3 6 30.11 1020 10 16.0934 0 0
9:53 am 09:53 Cloudy 57 13.9 52 11.1 83 83 W 3 6 30.13 1020 10 16.0934 0 0
10:53 am 10:53 Cloudy 61 16.1 50 10 67 67 Calm 30.14 1021 10 16.0934 0 0
11:17 am 11:17 Mostly Cloudy 61 16.1 49 9.4 65 65 Calm 30.06 1018 10 16.0934 0 0
11:26 am 11:26 Partly Cloudy 61 16.1 49 9.4 65 65 Calm 30.06 1018 10 16.0934 0 0
11:53 am 11:53 Mostly Cloudy 61 16.1 49 9.4 65 65 S 6 9 30.14 1021 10 16.0934 0 0
12:53 pm 12:53 Mostly Cloudy 63 17.2 47 8.3 56 56 Calm 30.13 1020 10 16.0934 0 0
1:53 pm 13:53 Partly Cloudy 64 17.8 45 7.2 50 50 S 5 7 30.11 1020 10 16.0934 0 0
2:53 pm 14:53 Mostly Cloudy 65 18.3 47 8.3 52 52 E 6 9 30.11 1020 10 16.0934 0 0
3:53 pm 15:53 Cloudy 66 18.9 46 7.8 49 49 ESE 6 9 30.11 1020 10 16.0934 0 0
4:53 pm 16:53 Mostly Sunny 65 18.3 46 7.8 51 51 NW 3 6 30.11 1020 10 16.0934 0 0
5:53 pm 17:53 Cloudy 66 18.9 46 7.8 49 49 Calm 30.12 1020 10 16.0934 0 0
6:53 pm 18:53 Clear 63 17.2 47 8.3 56 56 E 6 9 30.12 1020 10 16.0934 0 0
7:53 pm 19:53 Partly Cloudy 63 17.2 46 7.8 54 54 Calm 30.14 1021 10 16.0934 0 0
8:53 pm 20:53 Partly Cloudy 61 16.1 49 9.4 65 65 WNW 3 6 30.15 1021 10 16.0934 0 0
9:53 pm 21:53 Clear 59 15 49 9.4 69 69 WNW 3 6 30.17 1022 10 16.0934 0 0
10:53 pm 22:53 Clear 57 13.9 49 9.4 74 74 WNW 5 7 30.17 1022 10 16.0934 0 0
11:53 pm 23:53 Clear 56 13.3 49 9.4 77 77 NNW 6 9 30.17 1022 10 16.0934 0 0

Powered by AerisWeather